Location: Unspecified
(45.1508°N, 0.0000°E)
Time: 09:38:08
(UTC+00:00)

Meteor 1-11 Rocket - Visible Passes

Search period start: 04 April 2026 00:00
Search period end: 14 April 2026 00:00
Orbit: 830 x 914 km, 81.2° (Epoch: 29 March)

Date Brightness Start Highest point End Pass type
(mag) Time Alt. Az. Time Alt. Az. Time Alt. Az.
4 Apr 7.0 03:02:44 10° NNE 03:05:08 12° ENE 03:07:31 10° E visible
4 Apr 4.2 04:43:40 10° N 04:49:40 72° ENE 04:55:35 10° SSE visible
4 Apr 6.9 19:44:32 10° W 19:48:09 17° WNW 19:51:49 10° NNW visible
5 Apr 7.0 02:56:56 10° NNE 02:59:33 13° ENE 03:02:09 10° E visible
5 Apr 4.1 04:38:03 10° N 04:44:02 75° ENE 04:49:57 10° SSE visible
5 Apr 6.9 19:39:03 10° W 19:42:33 16° WNW 19:46:06 10° NNW visible
6 Apr 6.9 02:51:09 10° NNE 02:53:58 13° ENE 02:56:45 10° E visible
6 Apr 4.1 04:32:24 10° N 04:38:25 78° E 04:44:20 10° SSE visible
6 Apr 6.9 19:33:35 10° W 19:36:57 16° WNW 19:40:23 10° NNW visible
7 Apr 6.8 02:45:24 10° NNE 02:48:22 14° ENE 02:51:20 10° E visible
7 Apr 4.0 04:26:47 10° N 04:32:47 81° E 04:38:41 10° SSE visible
7 Apr 7.0 19:28:07 10° W 19:31:22 15° WNW 19:34:39 10° NNW visible
8 Apr 6.8 02:39:38 10° NNE 02:42:47 14° ENE 02:45:54 10° E visible
8 Apr 4.0 04:21:09 10° N 04:27:10 84° E 04:33:03 10° SSE visible
8 Apr 7.0 19:22:40 10° W 19:25:46 14° WNW 19:28:55 10° NNW visible
9 Apr 6.7 02:33:54 10° NNE 02:37:12 15° ENE 02:40:27 10° E visible
9 Apr 3.9 04:15:31 10° N 04:21:32 87° E 04:27:25 10° S visible
9 Apr 7.0 19:17:13 10° W 19:20:11 14° WNW 19:23:11 10° NNW visible
10 Apr 6.7 02:28:10 10° NNE 02:31:36 15° ENE 02:35:00 10° E visible
10 Apr 3.9 04:09:54 10° N 04:15:54 90° E 04:21:47 10° S visible
10 Apr 7.0 19:11:47 10° W 19:14:35 13° WNW 19:17:25 10° NNW visible
11 Apr 6.6 02:22:26 10° NNE 02:26:00 16° ENE 02:29:33 10° E visible
11 Apr 3.8 04:04:16 10° NNW 04:10:16 87° W 04:16:08 10° S visible
11 Apr 7.1 19:06:22 10° W 19:09:00 13° WNW 19:11:39 10° NNW visible
12 Apr 6.5 02:16:43 10° NNE 02:20:25 17° ENE 02:24:04 10° E visible
12 Apr 3.8 03:58:38 10° NNW 04:04:38 84° W 04:10:29 10° S visible
13 Apr 6.5 02:11:00 10° NNE 02:14:49 17° ENE 02:18:35 10° ESE visible
13 Apr 3.8 03:53:02 10° NNW 03:59:00 81° W 04:04:51 10° S visible
